Time,TemperatureF,DewpointF,PressureIn,WindDirection,WindDirectionDegrees,WindSpeedMPH,WindSpeedGustMPH,Humidity,HourlyPrecipIn,Conditions,Clouds,dailyrainin,SoftwareType,DateUTC
2014-10-02 00:03:00,67.0,44.8,29.92,NNE,23,1.3,1.3,45,0.00,,,0.00,WUHU216HW,2014-10-02 07:03:00,
2014-10-02 00:08:00,66.8,44.6,29.92,ENE,68,1.6,2.2,45,0.00,,,0.00,WUHU216HW,2014-10-02 07:08:00,
2014-10-02 00:13:00,66.6,44.6,29.92,NE,45,2.0,3.1,45,0.00,,,0.00,WUHU216HW,2014-10-02 07:13:00,
2014-10-02 00:18:00,66.6,43.9,29.92,NE,45,3.4,3.4,44,0.00,,,0.00,WUHU216HW,2014-10-02 07:18:00,
2014-10-02 00:23:00,66.6,43.9,29.92,East,90,1.8,3.4,44,0.00,,,0.00,WUHU216HW,2014-10-02 07:23:00,
2014-10-02 00:28:00,66.6,43.9,29.92,ESE,113,2.0,3.4,44,0.00,,,0.00,WUHU216HW,2014-10-02 07:28:00,
2014-10-02 00:33:00,66.6,43.9,29.92,NE,45,1.1,2.2,44,0.00,,,0.00,WUHU216HW,2014-10-02 07:33:00,
2014-10-02 00:38:00,66.6,43.9,29.92,WNW,293,0.4,2.0,44,0.00,,,0.00,WUHU216HW,2014-10-02 07:38:00,
2014-10-02 00:43:00,66.4,43.7,29.93,WNW,293,0.4,1.1,44,0.00,,,0.00,WUHU216HW,2014-10-02 07:43:00,
2014-10-02 00:48:00,66.4,43.7,29.93,East,90,2.2,2.2,44,0.00,,,0.00,WUHU216HW,2014-10-02 07:48:00,
2014-10-02 00:53:00,66.2,43.6,29.92,ENE,68,0.0,2.2,44,0.00,,,0.00,WUHU216HW,2014-10-02 07:53:00,
2014-10-02 00:58:00,65.9,43.8,29.92,ENE,68,0.0,1.6,45,0.00,,,0.00,WUHU216HW,2014-10-02 07:58:00,
2014-10-02 01:03:00,65.9,43.8,29.93,ENE,68,0.0,0.9,45,0.00,,,0.00,WUHU216HW,2014-10-02 08:03:00,
2014-10-02 01:08:00,65.7,43.7,29.93,ENE,68,0.0,0.9,45,0.00,,,0.00,WUHU216HW,2014-10-02 08:08:00,
2014-10-02 01:13:00,65.5,43.5,29.93,NE,45,0.7,2.5,45,0.00,,,0.00,WUHU216HW,2014-10-02 08:13:00,
2014-10-02 01:18:00,65.5,43.5,29.93,NE,45,0.0,2.5,45,0.00,,,0.00,WUHU216HW,2014-10-02 08:18:00,
2014-10-02 01:23:00,65.3,43.9,29.93,East,90,1.1,2.0,46,0.00,,,0.00,WUHU216HW,2014-10-02 08:23:00,
2014-10-02 01:28:00,65.2,43.7,29.93,NNE,23,1.1,2.5,46,0.00,,,0.00,WUHU216HW,2014-10-02 08:28:00,
2014-10-02 01:33:00,65.2,43.7,29.93,ESE,113,2.0,2.5,46,0.00,,,0.00,WUHU216HW,2014-10-02 08:33:00,
2014-10-02 01:38:00,65.0,43.6,29.93,North,0,1.1,2.0,46,0.00,,,0.00,WUHU216HW,2014-10-02 08:38:00,
2014-10-02 01:43:00,65.0,43.6,29.93,NNW,338,1.1,1.3,46,0.00,,,0.00,WUHU216HW,2014-10-02 08:43:00,
2014-10-02 01:48:00,64.8,44.0,29.93,West,270,0.7,1.8,47,0.00,,,0.00,WUHU216HW,2014-10-02 08:48:00,
2014-10-02 01:53:00,64.8,44.6,29.93,West,270,0.0,1.8,48,0.00,,,0.00,WUHU216HW,2014-10-02 08:53:00,
2014-10-02 01:58:00,64.8,44.6,29.94,SSE,158,0.0,0.7,48,0.00,,,0.00,WUHU216HW,2014-10-02 08:58:00,
2014-10-02 02:03:00,64.6,44.4,29.94,SSE,158,0.0,0.7,48,0.00,,,0.00,WUHU216HW,2014-10-02 09:03:00,
2014-10-02 02:08:00,64.4,44.2,29.93,SE,135,0.9,0.9,48,0.00,,,0.00,WUHU216HW,2014-10-02 09:08:00,
2014-10-02 02:13:00,64.3,44.0,29.94,ENE,68,0.4,1.3,48,0.00,,,0.00,WUHU216HW,2014-10-02 09:13:00,
2014-10-02 02:18:00,64.1,43.3,29.94,NNE,23,0.7,1.8,47,0.00,,,0.00,WUHU216HW,2014-10-02 09:18:00,
2014-10-02 02:23:00,64.1,43.3,29.94,NNE,23,1.1,1.8,47,0.00,,,0.00,WUHU216HW,2014-10-02 09:23:00,
2014-10-02 02:28:00,64.1,43.3,29.94,NNE,23,1.1,1.1,47,0.00,,,0.00,WUHU216HW,2014-10-02 09:28:00,
2014-10-02 02:33:00,63.9,42.6,29.94,ENE,68,1.1,1.1,46,0.00,,,0.00,WUHU216HW,2014-10-02 09:33:00,
2014-10-02 02:38:00,63.7,42.4,29.94,ENE,68,0.4,1.1,46,0.00,,,0.00,WUHU216HW,2014-10-02 09:38:00,
2014-10-02 02:43:00,63.7,42.4,29.94,ENE,68,0.4,2.0,46,0.00,,,0.00,WUHU216HW,2014-10-02 09:43:00,
2014-10-02 02:48:00,63.7,42.4,29.94,ENE,68,0.4,2.0,46,0.00,,,0.00,WUHU216HW,2014-10-02 09:48:00,
2014-10-02 02:53:00,63.5,42.2,29.94,ENE,68,0.0,1.1,46,0.00,,,0.00,WUHU216HW,2014-10-02 09:53:00,
2014-10-02 02:58:00,63.4,42.1,29.93,ENE,68,0.0,1.1,46,0.00,,,0.00,WUHU216HW,2014-10-02 09:58:00,
2014-10-02 03:03:00,63.2,42.0,29.93,ESE,113,1.1,1.3,46,0.00,,,0.00,WUHU216HW,2014-10-02 10:03:00,
2014-10-02 03:08:00,63.0,41.8,29.93,NW,315,1.1,1.6,46,0.00,,,0.00,WUHU216HW,2014-10-02 10:08:00,
2014-10-02 03:13:00,63.0,42.3,29.93,NE,45,0.4,1.8,47,0.00,,,0.00,WUHU216HW,2014-10-02 10:13:00,
2014-10-02 03:18:00,62.8,42.2,29.93,SSW,203,0.4,1.8,47,0.00,,,0.00,WUHU216HW,2014-10-02 10:18:00,
2014-10-02 03:23:00,62.8,42.2,29.93,SSE,158,0.0,1.8,47,0.00,,,0.00,WUHU216HW,2014-10-02 10:23:00,
2014-10-02 03:28:00,62.6,42.0,29.93,SE,135,1.1,1.8,47,0.00,,,0.00,WUHU216HW,2014-10-02 10:28:00,
2014-10-02 03:33:00,62.6,42.0,29.93,SE,135,0.0,1.8,47,0.00,,,0.00,WUHU216HW,2014-10-02 10:33:00,
2014-10-02 03:38:00,62.5,41.9,29.93,NNW,338,0.4,2.5,47,0.00,,,0.00,WUHU216HW,2014-10-02 10:38:00,
2014-10-02 03:43:00,62.5,42.4,29.93,NNW,338,0.2,2.5,48,0.00,,,0.00,WUHU216HW,2014-10-02 10:43:00,
2014-10-02 03:48:00,62.5,42.4,29.93,WSW,248,2.0,2.0,48,0.00,,,0.00,WUHU216HW,2014-10-02 10:48:00,
2014-10-02 03:53:00,62.3,42.3,29.93,West,270,1.1,2.0,48,0.00,,,0.00,WUHU216HW,2014-10-02 10:53:00,
2014-10-02 03:58:00,62.3,42.8,29.93,West,270,0.0,2.0,49,0.00,,,0.00,WUHU216HW,2014-10-02 10:58:00,
2014-10-02 04:03:00,62.3,42.8,29.93,SSW,203,0.4,1.8,49,0.00,,,0.00,WUHU216HW,2014-10-02 11:03:00,
2014-10-02 04:08:00,62.3,42.8,29.93,NW,315,1.8,3.8,49,0.00,,,0.00,WUHU216HW,2014-10-02 11:08:00,
2014-10-02 04:13:00,62.1,42.1,29.92,NW,315,1.1,3.8,48,0.00,,,0.00,WUHU216HW,2014-10-02 11:13:00,
2014-10-02 04:18:00,62.1,42.1,29.93,SW,225,0.4,2.0,48,0.00,,,0.00,WUHU216HW,2014-10-02 11:18:00,
2014-10-02 04:23:00,61.9,41.9,29.93,WSW,248,0.0,2.2,48,0.00,,,0.00,WUHU216HW,2014-10-02 11:23:00,
2014-10-02 04:28:00,61.9,41.9,29.93,ENE,68,3.4,3.4,48,0.00,,,0.00,WUHU216HW,2014-10-02 11:28:00,